Weather reports worldwide

Advertisment
Farnborough, United Kingdom (3768): temperature & dewpoint: 19.09.2018 11:00:00 - 25.09.2018 11:00:00 (BST)Farnborough, United Kingdom (3768): temperature -100cm: 19.09.2018 11:00:00 - 25.09.2018 11:00:00 (BST)Farnborough, United Kingdom (3768): wind speed & gusts: 19.09.2018 11:00:00 - 25.09.2018 11:00:00 (BST)Farnborough, United Kingdom (3768): wind direction: 19.09.2018 11:00:00 - 25.09.2018 11:00:00 (BST)Farnborough, United Kingdom (3768): reduced air pressure: 19.09.2018 11:00:00 - 25.09.2018 11:00:00 (BST)Farnborough, United Kingdom (3768): visibility: 19.09.2018 11:00:00 - 25.09.2018 11:00:00 (BST)Farnborough, United Kingdom (3768): precipitation: 19.09.2018 11:00:00 - 25.09.2018 11:00:00 (BST)
Date & Time tt [°C] td [°C] tt -100cm [°C] ff [km/h] ff [kn] fx [km/h] fx [kn] dd ppp [hPa] vv [km] rr [mm]
25.09.2018 11:00:00 - - - - - - - - - - -
25.09.2018 10:00:00 11,2 5,7 15,7 2 1 - - - 1039,3 10 0,0
25.09.2018 09:00:00 5,5 4,2 - 2 1 - - - 1039,1 10 0,0
25.09.2018 08:00:00 0,9 0,4 - 0 0 - - N 1039,1 10 0,0
25.09.2018 07:00:00 -0,2 -0,7 - 2 1 - - SW 1038,9 30 0,0
25.09.2018 06:00:00 0,1 -0,5 - 2 1 - - WSW 1039,1 30 0,0
25.09.2018 05:00:00 0,3 -0,3 - 4 2 - - SSW 1039,2 30 0,0
25.09.2018 04:00:00 0,9 0,4 - 4 2 - - WNW 1039,3 40 0,0
25.09.2018 03:00:00 0,5 -0,3 - 2 1 - - SSW 1039,4 35 0,0
25.09.2018 02:00:00 1,8 1,2 - 2 1 - - W 1039,5 45 0,0
25.09.2018 01:00:00 0,9 0,1 - 5 3 - - SW 1039,7 35 0,0
25.09.2018 00:00:00 2,0 1,3 - 4 2 - - SSW 1039,5 40 0,0
24.09.2018 23:00:00 2,9 1,9 - 2 1 - - WSW 1039,4 35 0,0
24.09.2018 22:00:00 3,2 1,6 - 5 3 - - SW 1039,2 40 0,0
24.09.2018 21:00:00 4,5 2,0 - 5 3 - - SW 1038,7 10 0,0
24.09.2018 20:00:00 5,5 2,1 - 5 3 - - SSW 1038,5 10 0,0
24.09.2018 19:00:00 11,7 0,9 - 5 3 - - NW 1037,9 10 0,0
24.09.2018 18:00:00 14,0 -0,9 - 13 7 - - N 1037,5 10 0,0
24.09.2018 17:00:00 14,4 1,0 - 16 9 - - N 1037,4 10 0,0
24.09.2018 16:00:00 14,7 2,5 - 15 8 - - NNW 1037,8 10 0,0
24.09.2018 15:00:00 14,6 2,8 - 15 8 - - N 1038,2 10 0,0
24.09.2018 14:00:00 14,6 3,3 - 13 7 - - NNW 1038,3 10 0,0
24.09.2018 13:00:00 13,2 4,2 - 16 9 - - NNW 1038,4 10 0,0
24.09.2018 12:00:00 12,9 4,5 - 18 10 - - N 1038,6 10 0,0
24.09.2018 11:00:00 12,0 6,4 - 13 7 - - NW 1038,6 10 0,0
24.09.2018 10:00:00 10,3 6,8 15,9 11 6 - - NW 1038,3 10 0,0
24.09.2018 09:00:00 7,3 6,3 - 9 5 - - WNW 1037,7 10 0,0
24.09.2018 08:00:00 4,1 3,9 - 5 3 - - WSW 1037,2 10 0,0
24.09.2018 07:00:00 2,5 2,4 - 5 3 - - SW 1036,6 29 0,0
24.09.2018 06:00:00 2,1 1,5 - 4 2 - - W 1036,1 2,4 0,0
24.09.2018 05:00:00 3,5 3,1 - 5 3 - - SW 1035,7 7 0,0
24.09.2018 04:00:00 4,3 4,1 - 8 4 - - WSW 1035,1 35 0,2
24.09.2018 03:00:00 3,8 3,0 - 4 2 - - W 1034,7 35 0,0
24.09.2018 02:00:00 5,1 4,1 - 5 3 - - NW 1033,9 45 0,0
24.09.2018 01:00:00 6,4 5,7 - 11 6 - - W 1033,3 40 0,0
24.09.2018 00:00:00 3,1 2,6 - 4 2 - - WSW 1032,1 35 0,0
23.09.2018 23:00:00 4,5 4,0 - 2 1 - - SW 1031,2 40 0,0
23.09.2018 22:00:00 4,2 2,5 - 4 2 - - W 1030,2 30 0,0
23.09.2018 21:00:00 8,3 4,6 - 8 4 - - WNW 1028,8 35 0,0
23.09.2018 20:00:00 9,3 4,4 - 9 5 - - NW 1027,2 10 0,0
23.09.2018 19:00:00 11,0 3,8 - 16 9 - - NW 1025,5 10 0,0
23.09.2018 18:00:00 12,4 3,0 - 18 10 - - NNW 1023,9 10 0,0
23.09.2018 17:00:00 13,4 5,3 - 22 12 - - NNW 1022,7 10 0,0
23.09.2018 16:00:00 12,7 5,7 - 22 12 - - NNW 1021,7 10 0,0
23.09.2018 15:00:00 12,3 6,0 - 26 14 - - NNW 1020,9 10 0,0
23.09.2018 14:00:00 11,3 8,3 - 18 10 - - NNW 1019,8 10 0,0
23.09.2018 13:00:00 8,6 7,4 - 13 7 - - NNW 1018,8 10 0,4
23.09.2018 12:00:00 8,6 6,8 - 22 12 52 28 N 1017,9 10 0,2
23.09.2018 11:00:00 9,3 8,8 - 24 13 - - N 1016,5 7 1,6
23.09.2018 10:00:00 8,9 8,6 16,0 15 8 - - N 1015,9 6 5,8
23.09.2018 09:00:00 8,7 8,4 - 11 6 - - N 1014,7 3,5 4,0
23.09.2018 08:00:00 9,1 8,8 - 11 6 - - NNE 1013,3 3,5 2,6
23.09.2018 07:00:00 9,3 8,8 - 15 8 - - NE 1013,1 2,5 0,2
23.09.2018 06:00:00 9,8 9,5 - 11 6 - - NNE 1013,6 2,9 0,4
23.09.2018 05:00:00 10,0 9,5 - 11 6 - - NE 1013,0 6 0,0
23.09.2018 04:00:00 10,3 9,9 - 13 7 - - NNE 1013,6 10 0,0
23.09.2018 03:00:00 10,5 10,3 - 13 7 - - NE 1013,4 5 0,0
23.09.2018 02:00:00 10,7 10,5 - 11 6 - - NNE 1013,9 3,8 0,0
23.09.2018 01:00:00 10,8 10,5 - 9 5 - - NE 1013,8 7 0,0
23.09.2018 00:00:00 10,7 10,4 - 11 6 - - NE 1013,7 8 0,0
22.09.2018 23:00:00 10,6 10,3 - 13 7 - - ENE 1013,1 10 0,0
22.09.2018 22:00:00 10,5 10,1 - 15 8 - - NE 1013,6 16 0,0
22.09.2018 21:00:00 10,4 10,1 - 21 11 - - ENE 1013,6 15 0,2
22.09.2018 20:00:00 10,2 9,9 - 18 10 - - ENE 1014,0 6 0,4
22.09.2018 19:00:00 10,3 10,0 - 16 9 - - E 1014,0 4,5 1,4
22.09.2018 18:00:00 10,5 10,0 - 15 8 - - E 1014,8 3,1 1,6
22.09.2018 17:00:00 10,4 9,9 - 15 8 - - E 1015,8 3,5 0,8
22.09.2018 16:00:00 10,7 9,8 - 15 8 - - ESE 1017,1 7 0,8
22.09.2018 15:00:00 10,9 9,1 - 9 5 - - ESE 1017,6 10 1,4
22.09.2018 14:00:00 11,4 7,8 - 5 3 - - - 1018,9 10 0,4
22.09.2018 13:00:00 11,7 8,9 - 11 6 - - WSW 1019,8 8 1,2
22.09.2018 12:00:00 11,9 8,8 - 9 5 - - W 1019,9 10 0,2
22.09.2018 11:00:00 13,2 8,5 - 16 9 - - WSW 1020,0 10 0,0
22.09.2018 10:00:00 12,9 8,4 16,0 13 7 - - WSW 1019,6 10 0,0
22.09.2018 09:00:00 12,1 8,4 - 15 8 - - WSW 1019,6 10 0,0
22.09.2018 08:00:00 11,3 8,4 - 9 5 - - WSW 1019,6 25 0,0
22.09.2018 07:00:00 11,2 8,4 - 11 6 - - WSW 1019,5 26 0,0
22.09.2018 06:00:00 11,2 8,4 - 15 8 - - SW 1019,3 25 0,0
22.09.2018 05:00:00 11,0 8,2 - 13 7 - - WSW 1019,1 26 0,0
22.09.2018 04:00:00 11,3 8,1 - 11 6 - - WSW 1019,6 27 0,0
22.09.2018 03:00:00 11,3 8,2 - 11 6 - - WSW 1019,4 30 0,0
22.09.2018 02:00:00 10,9 7,8 - 13 7 - - SW 1019,3 27 0,0
22.09.2018 01:00:00 11,1 7,6 - 11 6 - - WSW 1019,2 29 0,0
22.09.2018 00:00:00 10,8 7,2 - 15 8 - - SW 1019,0 30 0,0
21.09.2018 23:00:00 11,3 7,0 - 18 10 - - SW 1018,2 30 0,0
21.09.2018 22:00:00 11,2 7,4 - 13 7 - - SW 1017,8 30 0,0
21.09.2018 21:00:00 12,1 7,3 - 18 10 - - WSW 1017,1 10 0,0
21.09.2018 20:00:00 12,7 6,4 - 21 11 - - WSW 1015,9 10 0,0
21.09.2018 19:00:00 14,1 5,9 - 28 15 59 32 W 1014,7 10 0,0
21.09.2018 18:00:00 15,1 6,0 - 26 14 55 30 W 1013,5 10 0,0
21.09.2018 17:00:00 14,9 7,5 - 24 13 57 31 W 1012,8 10 0,0
21.09.2018 16:00:00 15,1 6,6 - 35 19 68 37 W 1012,1 10 0,0
21.09.2018 15:00:00 13,5 8,4 - 28 15 59 32 WSW 1012,0 10 0,2
21.09.2018 14:00:00 15,0 4,5 - 48 26 61 33 WSW 1010,9 10 0,0
21.09.2018 13:00:00 15,5 4,6 - 41 22 57 31 WSW 1009,9 10 0,0
21.09.2018 12:00:00 14,4 6,2 - 35 19 54 29 WSW 1009,8 10 0,0
21.09.2018 11:00:00 12,7 6,6 - 35 19 50 27 WSW 1009,5 10 0,0
21.09.2018 10:00:00 12,1 7,0 16,0 29 16 - - WSW 1008,8 10 0,0
21.09.2018 09:00:00 10,6 5,9 - 22 12 - - W 1007,8 10 0,0
21.09.2018 08:00:00 10,1 6,3 - 24 13 - - WSW 1006,6 10 0,0
21.09.2018 07:00:00 10,2 6,5 - 21 11 - - W 1005,0 10 0,0
21.09.2018 06:00:00 11,5 7,2 - 29 16 52 28 W 1003,5 35 0,0
21.09.2018 05:00:00 12,1 8,6 - 26 14 - - W 1002,2 40 0,0
21.09.2018 04:00:00 12,8 9,4 - 24 13 54 29 WSW 1000,6 35 0,0
21.09.2018 03:00:00 13,7 10,0 - 28 15 61 33 WSW 999,6 35 0,2
21.09.2018 02:00:00 16,1 14,5 - 42 23 78 42 SW 998,0 10 3,2
21.09.2018 01:00:00 17,9 16,0 - 46 25 78 42 SSW 998,0 9 0,4
21.09.2018 00:00:00 17,8 15,7 - 42 23 68 37 S 999,0 25 0,6
20.09.2018 23:00:00 18,1 15,5 - 39 21 63 34 SSW 1001,0 15 0,0
20.09.2018 22:00:00 18,6 15,5 - 41 22 70 38 SSW 1002,7 24 0,0
20.09.2018 21:00:00 17,8 16,0 - 29 16 52 28 SSW 1004,3 10 0,2
20.09.2018 20:00:00 18,8 14,8 - 34 18 57 31 SSW 1004,9 10 0,0
20.09.2018 19:00:00 19,0 14,6 - 35 19 61 33 SSW 1006,0 10 0,0
20.09.2018 18:00:00 19,3 14,5 - 37 20 61 33 SSW 1007,0 10 0,0
20.09.2018 17:00:00 19,2 14,6 - 44 24 65 35 SSW 1008,0 10 0,0
20.09.2018 16:00:00 20,1 14,5 - 39 21 68 37 SSW 1008,8 10 0,0
20.09.2018 15:00:00 19,5 14,4 - 37 20 70 38 SSW 1009,7 10 0,0
20.09.2018 14:00:00 19,0 14,9 - 34 18 50 27 SSW 1010,4 10 0,0
20.09.2018 13:00:00 18,3 14,6 - 28 15 52 28 SSW 1010,8 10 0,0
20.09.2018 12:00:00 18,7 15,4 - 29 16 - - SSW 1011,4 10 0,0
20.09.2018 11:00:00 17,8 16,1 - 28 15 - - SSW 1012,0 10 0,6
20.09.2018 10:00:00 17,7 15,7 16,0 28 15 - - SSW 1012,1 10 0,0
20.09.2018 09:00:00 17,4 15,2 - 29 16 - - SSW 1012,0 10 0,0
20.09.2018 08:00:00 16,8 15,0 - 29 16 - - SSW 1012,2 10 0,0
20.09.2018 07:00:00 16,7 15,2 - 28 15 - - SSW 1012,3 10 0,2
20.09.2018 06:00:00 16,2 15,6 - 24 13 - - SSW 1012,4 6 1,0
20.09.2018 05:00:00 17,3 14,8 - 28 15 - - SSW 1012,6 16 0,0
20.09.2018 04:00:00 17,4 15,0 - 22 12 - - SSW 1012,7 19 0,0
20.09.2018 03:00:00 17,5 15,1 - 24 13 - - SSW 1013,1 19 0,0
20.09.2018 02:00:00 17,2 15,1 - 18 10 - - SSW 1013,4 20 0,0
20.09.2018 01:00:00 16,8 15,3 - 18 10 - - SSW 1013,7 22 0,0
20.09.2018 00:00:00 16,8 15,5 - 21 11 - - SW 1014,1 20 0,0
19.09.2018 23:00:00 15,7 14,6 - 11 6 - - WSW 1014,6 14 0,0
19.09.2018 22:00:00 17,8 14,9 - 29 16 - - SSW 1014,4 22 0,0
19.09.2018 21:00:00 17,8 14,5 - 28 15 46 25 SW 1014,3 23 0,0
19.09.2018 20:00:00 18,5 14,3 - 34 18 52 28 SW 1013,9 10 0,0
19.09.2018 19:00:00 18,5 14,4 - 35 19 52 28 SW 1013,4 10 0,0
19.09.2018 18:00:00 19,2 14,7 - 31 17 46 25 SSW 1013,2 10 0,0
19.09.2018 17:00:00 19,7 14,3 - 34 18 65 35 SSW 1012,5 10 0,0
19.09.2018 16:00:00 21,1 13,1 - 42 23 68 37 SW 1012,1 10 0,0
19.09.2018 15:00:00 21,4 14,2 - 44 24 67 36 SW 1012,0 10 0,0
19.09.2018 14:00:00 20,9 14,7 - 41 22 67 36 SW 1012,2 10 0,0
19.09.2018 13:00:00 20,3 16,0 - 41 22 52 28 SSW 1012,3 10 0,0
19.09.2018 12:00:00 19,9 15,6 - 34 18 57 31 SSW 1011,9 10 0,0
19.09.2018 11:00:00 18,6 16,6 - 28 15 48 26 SSW 1012,0 10 0,2

tt = temperature
td = dewpoint
tt -100cm = temperature -100cm
ff = wind speed
fx = gusts
dd = wind direction
ppp = reduced air pressure
vv = visibility
rr = precipitation

Next stations